Location: La Savane
(18.0962°N, 63.0646°W)
Time: 07:13:55
(UTC+00:00)

Cosmos 2315 Rocket - Pass Details

Date: 29 October 2020
Orbit: 967 x 1001 km, 82.9° (Epoch: 28 November)

Event Time Altitude Azimuth Distance (km) Brightness Sun altitude
Rises 22:23:21 0° 164° (SSE) 3,663 7.0 -10.6°
Reaches altitude 10° 22:26:03 10° 156° (SSE) 2,712 6.2 -11.3°
Maximum altitude 22:31:40 37° 91° (E) 1,468 4.5 -12.6°
Drops below altitude 10° 22:37:15 10° 26° (NNE) 2,704 6.0 -13.9°
Sets 22:39:56 0° 18° (NNE) 3,650 6.7 -14.5°
